Regional Weather Roundup
Issued by NWS

Home | Current Version | Previous Version | Text Only | Print | Product List | Glossary Off
Versions: 1 2 3 4 5 6 7 8 9 10 11 12 13 14 15 16 17 18 19 20 21 22 23 24 25 26 27 28 29 30 31 32 33 34 35 36 37 38 39 40 41 42 43 44 45 46 47 48 49 50

010
ASUS43 KLMK 261410
RWRKY
KENTUCKY REGIONAL WEATHER ROUNDUP
NATIONAL WEATHER SERVICE LOUISVILLE KY
900 AM EST SUN FEB 26 2017

NOTE "FAIR" INDICATES FEW OR NO CLOUDS BELOW 12,000 FEET
WITH NO SIGNIFICANT WEATHER AND/OR OBSTRUCTIONS TO VISIBILITY.

KYZ001>023-026-027-061>063-070>075-261500-
WESTERN AND SOUTH CENTRAL KENTUCKY

CITY           SKY/WX    TMP DP  RH WIND       PRES   REMARKS
PADUCAH        SUNNY     34  19  54 SE9       30.20R WCI  27
HENDERSON      SUNNY     30  19  64 SE7       30.22R WCI  23
OWENSBORO      SUNNY     30  23  75 SE6       30.23R WCI  24
HOPKINSVILLE   SUNNY     33  21  62 SE7       30.21S WCI  26
BOWLING GREEN  SUNNY     31  24  75 E5        30.24F WCI  26
GLASGOW        SUNNY     30  27  88 CALM      30.24S
$$

KYZ024-025-028>034-038-045-046-053-261500-
NORTH CENTRAL KENTUCKY

CITY           SKY/WX    TMP DP  RH WIND       PRES   REMARKS
LOUISVILLE/SDF MOSUNNY   32  17  54 SE7       30.23S WCI  26
LOUISVILLE/LOU SUNNY     31  17  56 SE5       30.23F WCI  26
FORT KNOX      SUNNY     29  19  65 E5        30.20F WCI  24
$$

KYZ035>037-039>044-047>052-055>060-089>105-261500-
NORTHEAST KENTUCKY

CITY           SKY/WX    TMP DP  RH WIND       PRES   REMARKS
LEXINGTON      SUNNY     29  19  66 VRB3      30.24R
COVINGTON      SUNNY     27  18  69 SW5       30.20R WCI  22
FRANKFORT      SUNNY     29  18  63 SW5       30.23R WCI  24
$$

KYZ054-064>069-076>088-106>120-261500-
SOUTHEAST KENTUCKY

CITY           SKY/WX    TMP DP  RH WIND       PRES   REMARKS
JACKSON        SUNNY     30  20  66 VRB5      30.23R WCI  25
LONDON         SUNNY     30  21  69 NW3       30.24R
SOMERSET       SUNNY     30  27  86 CALM      30.28R
MIDDLESBORO    SUNNY     29  24  82 CALM      30.26R
MONTICELLO     SUNNY     35  32  88 NE7       30.28R WCI  29
$$





USA.gov is the U.S. government's official web portal to all federal, state and local government web resources and services.